Showing default

TRANSIT 4B, 202

Orbit data source: Space-Track

TRANSIT 4B, 202 is a payload satellite owned by USN BuWeps (US) in LEO that was launched on Wed, 15 Nov 1961 UTC via a THOR ABLESTAR launch vehicle from the Air Force Eastern Test Range (AFETR). Payload-class satellites include a variety of spacecraft equipped with specific instruments for various scientific and technological missions. These include communications satellites like Starlink; space stations such as the ISS; scientific satellites like the Hubble; Earth observation satellites from companies like Planet Labs, Umbra, and HawkEye 360; GPS; miniature CubeSats for education and research; and military/defense satellites.

Loading next visibility...
Identifier
202, 1961-031A
Orbit
LEO
Country
Flag of USUS
Related business
Manufacturer
APL
Mission
Spacecraft
Bus & Motor
TRANSIT 4, Unknown motor
Mass
89 kg wet, 89 kg dry
Launch date (UTC)
1961-11-15 (65 years ago)
Launch vehicle
THOR ABLESTAR
Launch site
Air Force Eastern Test Range (AFETR)
Object type
Payload
Rocket body
Debris
Shape & HBR
Unknown
Radar Cross Section
Large (>1 m²)

Expand to show TLE details & history
Last TLE update: 2 days ago

TLE from 2 days ago
0 TRANSIT 4B
1   202U 61031A   26162.31676826  .00000064  00000-0  49503-4 0  9996
2   202  32.4388  31.6996 0101045 170.5257 189.7295 13.63792942220197
Epoch: 2026-06-11T07:36Z
TLE epoch observation values (Epoch: 2026-06-11T07:36:08.777Z)
Latitude
-0.00002°
Longitude
18.00069°
Altitude
1,094.383 km
Speed
7.271 km/s
True Right ascension
02h 06m 47s
True Declination
0° 00' 00"
Sunlit
Object was in daylight at epoch
Visualization orbit readout
Latitude
Unknown
Longitude
Unknown
Altitude
Unknown
Speed
Unknown
Apparent Right ascension
Unknown
Apparent Declination
Unknown
Sunlit
N/A
Visualization observer readout
Local Sidereal Time
14:10:52
Azimuth
Unknown
Elevation
Unknown
Doppler factor
Unknown
Orbital elements
Apogee altitude
1,100.137 km
Perigee altitude
950.52 km
Semi-major axis
7,403.466 km
Eccentricity
0.0101
Inclination
32.4388°
RAAN
31.6996°
Arg. of periapsis
170.5257°
True anomaly
189.53623°
Mean anomaly
189.7295°
Eccentric anomaly
189.63263°
Mean motion
3.40714 °/min
Orbital period
105.66 mins
BSTAR
0.000049503
Loading maneuver chart data...
Computing Atmospheric mass density...
Loading historical data...
Loading historical data...
Loading historical data...
Loading historical data...
Loading historical data...
Loading historical data...
Loading historical data...
Other satellites on launch #31 in the year 1961 (1961-11-15 UTC)

Documentation

Showing up to 5 results
|